Location: Vibo Valentia
(38.6670°N, 16.1000°E)
Time: 11:23:46
(UTC+02:00)

STARLINK-1353 - Pass Details

Date: 08 October 2020
Orbit: 530 x 533 km, 53.0° (Epoch: 22 October)

Event Time Altitude Azimuth Distance (km) Brightness Sun altitude
Exits shadow 04:34:09 10° 5° (N) 1,767 6.4 -28.7°
Drops below altitude 10° 04:34:27 10° 10° (N) 1,785 6.5 -28.6°
Sets 04:38:36 0° 51° (NE) 2,677 8.1 -27.8°
